Creek Data

    Home     View Charts     View Raw Data     Messages

ID Distance Battery Voltage Battery Current Internal Temp Internal Humidity External Temp Solar Input rssi snr Time Stamp Record
66100 15.1 3.99 -5 48 52 51 0 -71 8 02/12/2026 08:00 PM 48906
66099 15.1 3.92 -5 49 52 51 0 -72 6 02/12/2026 07:45 PM 48905
66098 15.1 3.92 -5 49 53 53 0 -72 7 02/12/2026 07:30 PM 48904
66097 15.1 3.92 -5 49 54 52 0 -72 7 02/12/2026 07:15 PM 48903
66096 15.1 3.92 -5 49 54 51 0 -71 8 02/12/2026 07:00 PM 48902
66095 15.1 3.99 -5 50 55 52 0 -72 8 02/12/2026 06:45 PM 48901
66094 15.1 3.92 -5 52 55 54 0 -72 7 02/12/2026 06:30 PM 48900
66093 15.1 3.92 -5 54 56 55 0.1 -71 8 02/12/2026 06:15 PM 48899
66092 15.1 3.92 -5 55 56 56 0.9 -71 6 02/12/2026 06:00 PM 48898
66091 15.1 3.91 -10 58 56 57 4.2 -72 5 02/12/2026 05:45 PM 48897
66090 15.1 4.03 8 62 54 59 4.5 -71 7 02/12/2026 05:30 PM 48896
66089 15.1 4.01 -5 63 54 60 4.5 -71 7 02/12/2026 05:15 PM 48895
66088 15.1 3.99 19 64 54 61 4.5 -72 7 02/12/2026 05:00 PM 48894
66087 15.1 3.98 0 67 52 62 5.1 -71 8 02/12/2026 04:45 PM 48893
66086 15.2 4.09 0 68 52 62 5.1 -72 7 02/12/2026 04:30 PM 48892
66085 15.2 3.98 0 71 50 63 5.1 -72 7 02/12/2026 04:15 PM 48891
66084 15.1 3.99 0 71 51 63 5.1 -71 7 02/12/2026 04:00 PM 48890
66083 15.1 3.99 0 73 49 63 5.1 -73 8 02/12/2026 03:45 PM 48889
66082 15.1 3.98 0 74 48 63 5.1 -72 8 02/12/2026 03:30 PM 48888
66081 15.2 3.98 0 73 48 63 5.1 -72 8 02/12/2026 03:15 PM 48887
66080 15.2 3.98 0 72 48 63 5.1 -72 8 02/12/2026 03:00 PM 48886
66079 15.2 3.98 0 74 47 63 5.1 -72 8 02/12/2026 02:45 PM 48885
66078 15.2 3.98 0 74 47 62 5.1 -72 8 02/12/2026 02:30 PM 48884
66077 15.2 3.98 0 73 46 62 5.1 -73 8 02/12/2026 02:15 PM 48883
66076 15.2 3.98 0 73 46 62 5.1 -73 8 02/12/2026 02:00 PM 48882